TimeAKST,TemperatureF,Dew PointF,Humidity,Sea Level PressureIn,VisibilityMPH,Wind Direction,Wind SpeedMPH,Gust SpeedMPH,PrecipitationIn,Events,Conditions,WindDirDegrees,DateUTC
12:16 AM,3.2,-20.2,33,29.54,3.0,Calm,Calm,-,N/A,,Overcast,0,2013-01-03 09:16:00
12:36 AM,3.2,-0.4,85,29.54,2.5,Calm,Calm,-,N/A,,Overcast,0,2013-01-03 09:36:00
12:56 AM,3.2,-9999,N/A,29.56,5.0,Calm,Calm,-,N/A,,Overcast,0,2013-01-03 09:56:00
1:16 AM,3.2,-11.2,51,29.56,0.5,Calm,Calm,-,N/A,,Overcast,0,2013-01-03 10:16:00
1:36 AM,3.2,-18.4,36,29.57,0.5,Calm,Calm,-,N/A,,Overcast,0,2013-01-03 10:36:00
1:56 AM,5.0,-4.0,66,29.58,0.5,Calm,Calm,-,N/A,,Overcast,0,2013-01-03 10:56:00
2:16 AM,5.0,-9999,N/A,29.58,0.8,Calm,Calm,-,N/A,,Overcast,0,2013-01-03 11:16:00
3:36 AM,5.0,-9999,N/A,29.59,6.0,Calm,Calm,-,N/A,,Overcast,0,2013-01-03 12:36:00
3:56 AM,5.0,-9999,N/A,29.60,10.0,Calm,Calm,-,N/A,,Overcast,0,2013-01-03 12:56:00
4:16 AM,3.2,-16.6,39,29.61,10.0,Calm,Calm,-,N/A,,Overcast,0,2013-01-03 13:16:00
4:36 AM,3.2,-18.4,36,29.60,10.0,Calm,Calm,-,N/A,,Overcast,0,2013-01-03 13:36:00
4:56 AM,5.0,5.0,100,29.61,1.2,Calm,Calm,-,N/A,,Overcast,0,2013-01-03 13:56:00
5:16 AM,1.4,1.4,100,29.62,1.0,Calm,Calm,-,N/A,,Overcast,0,2013-01-03 14:16:00
5:36 AM,1.4,-18.4,39,29.63,0.8,Calm,Calm,-,N/A,,Overcast,0,2013-01-03 14:36:00
5:56 AM,3.2,-11.2,51,29.63,1.2,Calm,Calm,-,N/A,,Overcast,0,2013-01-03 14:56:00
6:16 AM,1.4,-9999,N/A,29.63,0.5,Calm,Calm,-,N/A,,Overcast,0,2013-01-03 15:16:00
6:36 AM,-0.4,-23.8,32,29.63,0.8,Calm,Calm,-,N/A,,Mostly Cloudy,0,2013-01-03 15:36:00
6:56 AM,-0.4,-0.4,100,29.63,1.2,Calm,Calm,-,N/A,,Scattered Clouds,0,2013-01-03 15:56:00
7:16 AM,-0.4,-11.2,60,29.64,1.0,Calm,Calm,-,N/A,,Mostly Cloudy,0,2013-01-03 16:16:00
7:36 AM,-2.2,-25.6,32,29.64,1.0,Calm,Calm,-,N/A,,Clear,0,2013-01-03 16:36:00
7:56 AM,-2.2,-9999,N/A,29.65,1.0,Calm,Calm,-,N/A,,Clear,0,2013-01-03 16:56:00
8:16 AM,-0.4,-23.8,32,29.65,2.0,Calm,Calm,-,N/A,,Clear,0,2013-01-03 17:16:00
8:36 AM,-2.2,-9999,N/A,29.66,3.0,Calm,Calm,-,N/A,,Clear,0,2013-01-03 17:36:00
8:56 AM,-2.2,-11.2,66,29.67,1.2,Calm,Calm,-,N/A,,Clear,0,2013-01-03 17:56:00
9:16 AM,-2.2,-27.4,29,29.68,3.0,Calm,Calm,-,N/A,,Clear,0,2013-01-03 18:16:00
9:36 AM,-2.2,-2.2,100,29.68,2.5,Calm,Calm,-,N/A,,Clear,0,2013-01-03 18:36:00
9:56 AM,-7.6,-9999,N/A,29.69,10.0,Calm,Calm,-,N/A,,Clear,0,2013-01-03 18:56:00
10:16 AM,-5.8,-5.8,100,29.69,10.0,Calm,Calm,-,N/A,,Clear,0,2013-01-03 19:16:00
10:36 AM,-5.8,-27.4,35,29.70,10.0,Calm,Calm,-,N/A,,Clear,0,2013-01-03 19:36:00
10:56 AM,-5.8,-9999,N/A,29.70,9.0,Calm,Calm,-,N/A,,Clear,0,2013-01-03 19:56:00
11:16 AM,-5.8,-9999,N/A,29.71,10.0,Calm,Calm,-,N/A,,Clear,0,2013-01-03 20:16:00
11:36 AM,-4.0,-9999,N/A,29.72,10.0,Calm,Calm,-,N/A,,Clear,0,2013-01-03 20:36:00
11:56 AM,-7.6,-9999,N/A,29.72,10.0,Calm,Calm,-,N/A,,Clear,0,2013-01-03 20:56:00
12:16 PM,-7.6,-11.2,84,29.72,10.0,Calm,Calm,-,N/A,,Clear,0,2013-01-03 21:16:00
12:36 PM,-5.8,-27.4,35,29.72,10.0,Calm,Calm,-,N/A,,Clear,0,2013-01-03 21:36:00
12:56 PM,-11.2,-14.8,84,29.72,9.0,Calm,Calm,-,N/A,,Clear,0,2013-01-03 21:56:00
1:16 PM,-7.6,-7.6,100,29.72,10.0,Calm,Calm,-,N/A,,Scattered Clouds,0,2013-01-03 22:16:00
1:36 PM,-5.8,-5.8,100,29.73,10.0,Calm,Calm,-,N/A,,Overcast,0,2013-01-03 22:36:00
1:56 PM,-7.6,-9999,N/A,29.73,9.0,Calm,Calm,-,N/A,,Mostly Cloudy,0,2013-01-03 22:56:00
2:16 PM,-5.8,-18.4,55,29.72,10.0,East,3.5,-,N/A,,Mostly Cloudy,90,2013-01-03 23:16:00
2:36 PM,-5.8,-23.8,42,29.73,10.0,Calm,Calm,-,N/A,,Overcast,0,2013-01-03 23:36:00
2:56 PM,-5.8,-9.4,84,29.73,3.0,Calm,Calm,-,N/A,,Overcast,0,2013-01-03 23:56:00
3:16 PM,-2.2,-27.4,29,29.72,10.0,Calm,Calm,-,N/A,,Overcast,0,2013-01-04 00:16:00
3:36 PM,-4.0,-9999,N/A,29.73,10.0,Calm,Calm,-,N/A,,Overcast,0,2013-01-04 00:36:00
3:56 PM,-4.0,-29.2,29,29.73,10.0,Calm,Calm,-,N/A,,Overcast,0,2013-01-04 00:56:00
4:16 PM,-2.2,-9999,N/A,29.73,10.0,Calm,Calm,-,N/A,,Overcast,0,2013-01-04 01:16:00
4:36 PM,-2.2,-25.6,32,29.73,10.0,Calm,Calm,-,N/A,,Mostly Cloudy,0,2013-01-04 01:36:00
4:56 PM,-7.6,-7.6,100,29.73,10.0,Calm,Calm,-,N/A,,Clear,0,2013-01-04 01:56:00
5:16 PM,-5.8,-27.4,35,29.73,10.0,Calm,Calm,-,N/A,,Clear,0,2013-01-04 02:16:00
5:36 PM,-4.0,-5.8,92,29.73,10.0,Calm,Calm,-,N/A,,Clear,0,2013-01-04 02:36:00
5:56 PM,-2.2,-18.4,46,29.73,10.0,Calm,Calm,-,N/A,,Clear,0,2013-01-04 02:56:00
6:16 PM,-5.8,-25.6,38,29.74,10.0,Calm,Calm,-,N/A,,Clear,0,2013-01-04 03:16:00
6:36 PM,-7.6,-18.4,59,29.74,10.0,Calm,Calm,-,N/A,,Clear,0,2013-01-04 03:36:00
6:56 PM,-7.6,-20.2,54,29.74,10.0,Calm,Calm,-,N/A,,Clear,0,2013-01-04 03:56:00
7:16 PM,-2.2,-13.0,60,29.74,10.0,Calm,Calm,-,N/A,,Clear,0,2013-01-04 04:16:00
7:36 PM,-0.4,-25.6,30,29.73,10.0,Calm,Calm,-,N/A,,Clear,0,2013-01-04 04:36:00
7:56 PM,-2.2,-7.6,78,29.73,10.0,Calm,Calm,-,N/A,,Clear,0,2013-01-04 04:56:00
8:16 PM,-2.2,-29.2,27,29.73,10.0,Calm,Calm,-,N/A,,Clear,0,2013-01-04 05:16:00
8:36 PM,-7.6,-11.2,84,29.73,10.0,Calm,Calm,-,N/A,,Clear,0,2013-01-04 05:36:00
9:16 PM,-9.4,-18.4,65,29.74,10.0,Calm,Calm,-,N/A,,Clear,0,2013-01-04 06:16:00
9:36 PM,-7.6,-9999,N/A,29.74,10.0,Calm,Calm,-,N/A,,Clear,0,2013-01-04 06:36:00
9:56 PM,-7.6,-9999,N/A,29.73,10.0,Calm,Calm,-,N/A,,Clear,0,2013-01-04 06:56:00
10:16 PM,-5.8,-14.8,65,29.74,10.0,Calm,Calm,-,N/A,,Clear,0,2013-01-04 07:16:00
10:36 PM,-2.2,-2.2,100,29.74,10.0,Calm,Calm,-,N/A,,Clear,0,2013-01-04 07:36:00
10:56 PM,-2.2,-14.8,55,29.74,10.0,Calm,Calm,-,N/A,,Clear,0,2013-01-04 07:56:00
11:16 PM,-2.2,-5.8,85,29.74,10.0,Calm,Calm,-,N/A,,Clear,0,2013-01-04 08:16:00
11:36 PM,-4.0,-16.6,55,29.74,10.0,Calm,Calm,-,N/A,,Clear,0,2013-01-04 08:36:00
11:56 PM,-2.2,-9.4,71,29.74,10.0,Calm,Calm,-,N/A,,Clear,0,2013-01-04 08:56:00